[Iaude] MPEC M53: 2022 MG1 [a=2.30,e=0.61,i=2.4,H=22.5]

mpec at marsden.cfa.harvard.edu mpec at marsden.cfa.harvard.edu
Thu Jun 23 10:41:05 EDT 2022


M.P.E.C. 2022-M53                                 Issued 2022 June 23, 14:39 UT

     The Minor Planet Electronic Circulars contain information on unusual
         minor planets and routine data on comets.  They are published
    on behalf of Division F of the International Astronomical Union by the
          Minor Planet Center, Smithsonian Astrophysical Observatory,
                          Cambridge, MA 02138, U.S.A.

             Prepared using the Tamkin Foundation Computer Network

                              MPC at CFA.HARVARD.EDU
            URL https://www.minorplanetcenter.net/    ISSN 1523-6714

                                    2022 MG1                                    


Observations:
     K22M01G* C2022 06 21.46038320 19 41.839-24 33 17.31         21.21wUEM053F52
     K22M01G  C2022 06 21.47249720 19 45.054-24 33 20.40         21.71wUEM053F52
     K22M01G  C2022 06 21.49687420 19 51.414-24 33 26.06         21.18wUEM053F52
     K22M01G  C2022 06 21.59082420 20 16.132-24 33 45.22         20.79GVEM053F52
     K22M01G  C2022 06 21.59162820 20 16.338-24 33 45.30         20.67GVEM053F52
     K22M01G ^C2022 06 22.57366220 24 58.955-24 37 04.73         20.86GVEM053568
     K22M01G ^C2022 06 22.57464420 24 59.232-24 37 04.93         20.87GVEM053568
     K22M01G ^C2022 06 22.57563020 24 59.508-24 37 05.10         20.95GVEM053568
     K22M01G KC2022 06 23.36846720 29 02.018-24 39 40.90         20.57GVEM053I52
     K22M01G KC2022 06 23.36969220 29 02.285-24 39 40.39               VEM053I52
     K22M01G KC2022 06 23.37091620 29 02.612-24 39 40.79               VEM053I52
     K22M01G KC2022 06 23.37214120 29 03.005-24 39 41.54         20.41GVEM053I52
     K22M01G  C2022 06 23.48653020 29 39.218-24 39 56.79         21.17wUEM053F52
     K22M01G  C2022 06 23.49608720 29 42.080-24 39 58.77         21.12wUEM053F52
     K22M01G  C2022 06 23.50563820 29 44.920-24 40 00.67         20.81wUEM053F52
     K22M01G  C2022 06 23.51517720 29 47.777-24 40 02.40         20.72wUEM053F52

Observer details:
568 Mauna Kea.  Observers R. Wainscoat, L. Wells, T. Burdullis.  Measurers R.
    Weryk, R. Wainscoat.  3.6-m Canada-France-Hawaii Telescope + CCD.
F52 Pan-STARRS 2, Haleakala.  Observers J. Bulger, T. Lowe, A. Schultz, I.
    Smith, K. Chambers, T. Dukes.  Measurers K. Chambers, S. Chastel, T. de
    Boer, J. Fairlamb, H. Gao, M. Huber, C.-C. Lin, E. Magnier, Y.
    Ramanjooloo, R. Wainscoat, R. Weryk.  1.8-m Ritchey-Chretien + CCD.
I52 Steward Observatory, Mt. Lemmon Station.  Observer R. A. Kowalski.
    Measurers E. J. Christensen, D. Fay, J. B. Fazekas, D. C. Fuls, A. R.
    Gibbs, A. D. Grauer, H. Groeller, J. K. Hogan, R. A. Kowalski, S. M.
    Larson, G. J. Leonard, D. Rankin, R. L. Seaman, A. Serrano, F. C. Shelly,
    K. W. Wierzchos.  1.0-m prime focus + CCD.

Orbital elements:
2022 MG1                                                 Earth MOID = 0.0249 AU
Epoch 2022 Aug. 9.0 TT = JDT 2459800.5                  Veres                   
M 355.78650              (2000.0)            P               Q                  
n   0.28337958     Peri.  278.88177     +0.98591504     +0.16250967             
a   2.2955690      Node    71.77301     -0.13238383     +0.90271114             
e   0.6133756      Incl.    2.38487     -0.10220595     +0.39837571             
P   3.48           H   22.56          G   0.15           U   9                  
Residuals in seconds of arc
220621 F52  0.1-  0.1+    220622 568  0.0   0.0     220623 F52  0.0   0.0
220621 F52  0.3+  0.0     220622 568  0.0   0.0     220623 F52  0.1+  0.0
220621 F52  0.2-  0.1+    220623 I52  0.0   0.3-    220623 F52  0.1-  0.0
220621 F52  0.1-  0.0     220623 I52  1.4-  0.5+    220623 F52  0.0   0.1+
220621 F52  0.2-  0.1+    220623 I52  1.9-  0.3+
220622 568  0.0   0.0     220623 I52  1.5-  0.2-

Ephemeris:
2022 MG1                 a,e,i = 2.30, 0.61, 2                   q = 0.8875
Date    TT    R. A. (2000) Decl.     Delta      r    Elong.  Phase     V
2022 05 24    19 04 41.6 -23 13 51   0.5677  1.4825   137.7    27.4    23.4
...
2022 06 08    19 35 04.8 -23 45 54   0.3864  1.3503   145.2    25.4    22.3
...
2022 06 16    19 58 03.4 -24 12 44   0.3014  1.2806   147.6    25.1    21.7
...
2022 06 22    20 22 12.3 -24 34 45   0.2432  1.2291   147.9    26.1    21.1
2022 06 23    20 27 07.6 -24 38 01   0.2341  1.2206   147.7    26.4    21.0
2022 06 24    20 32 22.5 -24 40 59   0.2250  1.2122   147.5    26.8    20.9
...
2022 06 30    21 12 59.2 -24 43 42   0.1747  1.1624   143.9    31.0    20.4
...
2022 07 08    22 46 35.1 -22 19 35   0.1225  1.0989   129.7    45.4    19.9
...
2022 07 23    03 04 52.4 +00 47 31   0.1232  0.9943    76.4    96.7    21.5

M. P. C. Staff               (C) Copyright 2022 MPC           M.P.E.C. 2022-M53




More information about the Iaude mailing list